Temperature
14 14 14 14 14 14 14 14 14 13 13 13 13 13 13 13 13 13 13 13 13 13 13 13 13 13 13 13 13 13 13 13 13 13 13 13 13 13
14 14 14 14 14 14 14 14 14 13 13 13 13 13 13 13 13 13 13 13 13 13 13 13 13 13 13 13 13 13 13 13 13 13 13 13 13 12
14 14 14 14 14 14 14 13 13 13 13 13 13 13 13 13 12 12 12 12 12 12 12 12 12 12 12 12 12 12 12 12 12 12 12 12 12 12
14 14 14 14 14 14 14 14 13 13 13 13 13 12 12 12 12 12 12 12 12 12 12 12 12 12 12 12 12 12 12 12 12 12 12 12 12 12
14 14 14 14 14 14 14 13 13 13 13 13 13 12 12 12 12 12 12 12 12 12 12 12 12 12 12 12 12 12 12 12 12 12 12 11 11 11
14 14 14 14 14 14 13 13 13 13 13 13 12 12 12 12 12 12 12 12 12 12 12 12 12 11 11 11 11 11 11 11 11 11 11 11 11 11
14 14 14 14 14 13 13 13 13 13 13 12 12 12 12 12 12 12 12 12 11 11 12 11 11 11 11 11 11 11 11 11 11 11 11 11 11 11
14 14 13 13 13 13 13 13 13 12 12 12 12 12 12 12 12 11 11 11 11 11 11 11 11 11 11 11 11 11 10 10 10 10 10 10 10 10
14 14 13 13 13 13 13 13 13 12 12 12 12 12 12 11 11 11 11 11 11 11 11 11 11 11 11 10 10 10 10 10 10 10 10 10 10 10
14 14 13 13 13 13 13 13 12 12 12 12 11 11 11 11 11 11 11 10 10 10 10 10 10 10 10 10 10 10 10 10 9 9 9 9 9 9
13 13 13 13 13 13 12 12 12 12 12 12 11 11 11 11 11 10 10 10 10 10 10 10 10 10 10 10 10 10 9 9 9 9 9 9 9 8
13 13 13 13 12 12 12 12 12 12 12 11 11 11 11 10 10 10 10 9 9 9 9 9 9 8 9 9 9 9 9 9 9 8 8 8 8 8
13 13 13 12 12 12 12 12 12 11 11 11 11 11 11 10 10 10 9 9 9 9 8 8 8 8 7 8 8 9 8 8 8 8 8 8 8 7
13 12 12 12 12 12 11 11 11 11 11 11 11 11 10 10 10 9 9 9 9 8 8 8 8 7 7 7 8 8 8 8 8 8 8 7 7 7
12 12 12 11 11 11 11 11 11 11 10 10 10 10 10 10 9 9 9 9 9 8 8 8 7 7 7 7 7 7 7 7 7 7 7 7 7 6
12 11 11 11 11 11 11 10 10 10 10 10 10 9 9 9 9 9 8 8 8 8 8 7 7 7 7 7 6 7 7 6 6 6 6 6 6 6
11 11 11 11 11 10 10 10 10 9 9 9 9 9 9 8 8 8 8 7 7 7 7 7 7 6 6 6 6 6 6 6 6 6 5 5 6 6
11 11 10 10 10 10 10 9 9 9 9 8 8 8 8 8 7 7 7 7 6 6 6 6 6 6 6 6 6 5 5 5 5 5 5 5 5 5
10 10 10 9 9 9 9 8 8 8 8 8 7 7 7 7 6 6 6 6 5 5 5 5 5 4 4 4 5 5 5 5 4 4 4 4 4 4
9 9 9 8 8 8 8 8 7 7 7 7 7 6 6 6 6 5 5 5 5 5 5 4 4 4 4 3 3 4 4 4 3 3 3 3 3 3
9 8 8 8 8 7 7 7 7 6 6 6 6 6 5 5 5 4 4 4 4 4 4 4 4 3 3 3 3 3 4 3 3 3 3 2 2 3
8 8 7 7 7 7 6 6 6 6 5 5 5 5 4 4 4 3 3 3 3 3 3 3 3 3 3 2 2 2 3 3 3 3 2 2 2 2
7 7 6 6 6 6 5 5 5 5 4 4 4 4 3 3 3 3 2 2 2 2 2 2 2 2 2 2 2 2 2 2 2 2 2 2 2 2
Wind_Speed
2 2 2 2 2 2 2 3 4 1 2 3 3 4 6 6 7 7 8 9 10 10 10 10 10 10 9 9 9 9 9 9 9 10 9 9 9 9
2 3 3 2 2 2 2 2 2 3 1 2 2 3 4 5 6 7 7 7 8 8 8 8 8 8 8 8 7 8 8 8 8 8 8 8 8 8
3 3 3 2 2 2 2 2 2 2 2 1 2 2 3 3 5 6 7 6 7 7 7 7 7 7 6 6 6 6 6 6 6 7 7 7 7 7
2 2 2 2 3 2 2 2 2 2 2 1 1 2 2 3 3 4 5 5 6 7 6 6 5 6 6 6 6 5 5 5 5 6 6 6 6 6
2 2 1 2 2 1 2 2 2 2 2 2 0 1 1 2 2 3 4 4 5 5 6 5 4 5 5 5 5 4 4 4 4 5 5 6 6 7
1 1 1 2 2 2 2 2 2 3 2 2 1 1 1 2 1 2 3 3 3 5 5 4 5 6 6 5 5 4 4 4 4 5 5 6 6 7
0 0 0 1 2 3 2 3 3 2 2 1 1 1 1 1 1 1 1 3 3 2 3 3 4 5 6 6 5 5 5 5 6 6 6 6 7 7
1 1 1 0 1 1 2 4 5 4 3 2 1 1 2 2 1 1 1 1 3 2 1 3 2 3 6 7 7 7 7 7 7 7 7 7 7 8
2 1 1 0 1 1 1 1 1 3 4 4 3 3 3 3 2 1 2 2 3 2 1 3 2 3 7 8 9 9 8 8 8 8 8 8 9 9
3 3 2 2 1 2 1 0 1 1 2 2 3 4 3 2 3 2 3 2 3 2 1 3 3 3 5 9 10 10 9 9 9 9 9 10 10 11
2 2 3 3 2 3 2 1 2 3 3 3 4 4 4 3 3 2 1 0 3 3 2 2 3 3 4 4 8 9 9 10 10 10 11 11 12 11
1 1 3 3 3 3 3 3 3 4 2 2 2 3 3 3 4 4 3 2 2 3 2 2 2 2 4 3 4 7 8 10 12 12 13 13 12 9
2 2 2 3 3 3 3 3 5 3 2 2 2 3 3 3 3 5 5 4 4 5 3 3 2 2 3 4 4 5 7 8 9 10 12 13 13 9
3 2 2 2 2 2 2 3 4 2 0 1 2 3 3 4 4 5 7 8 9 8 6 5 3 3 3 4 5 4 5 8 7 7 10 12 12 13
2 2 1 0 1 1 2 2 1 0 1 1 3 4 3 4 3 3 4 6 8 10 10 8 6 4 4 6 6 5 5 5 6 6 7 7 8 8
0 1 2 3 2 2 2 2 1 1 1 2 3 3 3 2 2 2 2 2 3 5 6 9 9 6 6 7 7 8 6 5 4 6 7 7 9 10
2 2 2 2 2 2 2 2 2 2 2 2 2 3 3 3 3 2 2 2 3 4 6 4 6 8 8 7 7 9 8 7 7 7 6 8 9 9
4 2 1 1 1 2 2 2 2 2 2 2 2 3 3 4 4 3 2 3 4 6 6 5 4 4 4 5 9 9 8 8 8 7 6 7 10 9
4 2 1 1 1 2 2 2 2 3 2 2 3 3 4 4 4 5 4 4 5 6 6 5 3 3 6 9 6 8 7 8 7 7 7 8 10 10
2 1 0 1 1 1 2 2 2 3 2 2 3 3 4 4 5 5 5 6 6 6 6 5 4 5 7 9 8 7 10 9 8 9 9 8 9 11
0 0 1 1 1 2 2 2 2 3 3 3 3 4 4 4 5 5 6 8 7 6 8 8 7 9 7 6 8 8 7 11 12 9 9 9 9 8
0 0 1 1 1 2 2 2 2 3 3 3 4 4 4 4 5 6 6 7 7 7 9 8 8 6 5 7 11 12 11 10 12 16 15 13 9 8
0 0 1 1 2 2 2 2 3 3 3 4 4 4 5 5 5 6 6 7 7 8 9 9 7 6 7 9 11 12 13 13 10 9 10 14 17 19
Wind_Direction
82 91 93 86 100 110 125 138 140 137 306 305 319 330 355 12 19 27 30 34 37 40 44 47 48 49 49 49 48 48 46 46 44 41 40 39 38 36
80 85 77 72 83 90 110 104 116 146 203 291 289 310 342 4 14 24 25 32 33 35 38 40 41 43 43 44 44 44 42 41 39 37 34 31 29 26
67 86 77 81 85 77 84 88 85 107 135 305 322 339 357 3 7 16 16 19 16 22 29 31 32 34 33 34 33 32 31 30 30 29 25 21 18 13
92 89 74 85 80 75 86 90 95 97 127 152 332 349 352 2 4 4 3 5 3 7 11 15 22 22 19 18 19 18 19 20 19 17 13 8 3 358
138 130 127 111 98 91 98 101 99 91 89 125 152 337 337 0 8 2 4 356 352 353 355 356 360 358 357 358 358 1 3 3 1 359 357 356 353 348
136 152 161 164 176 152 130 134 120 104 91 97 104 342 323 335 11 353 343 340 330 345 344 336 335 336 331 327 327 329 326 324 329 333 334 333 333 333
122 43 208 182 187 170 157 162 141 124 113 112 116 353 315 317 296 287 293 317 303 323 333 321 322 322 315 310 309 310 309 306 305 307 311 314 317 318
191 270 305 307 220 190 175 161 156 155 165 158 188 228 260 244 234 228 234 340 308 315 329 305 316 297 293 289 292 295 298 297 298 298 299 303 304 304
198 219 256 276 101 95 80 102 171 184 175 169 191 224 235 227 189 215 223 228 252 279 335 287 292 290 289 287 289 286 288 290 290 291 292 294 297 297
206 207 211 238 185 156 141 70 302 288 238 196 212 231 233 209 183 202 218 251 279 278 193 267 287 285 297 289 288 287 282 281 286 287 288 292 294 293
220 192 189 215 226 164 151 205 295 301 286 251 248 260 271 253 186 122 104 329 299 285 207 239 282 298 292 284 290 291 283 280 282 286 287 287 289 289
246 237 217 216 225 184 178 193 248 271 284 323 312 306 298 275 224 200 196 210 260 282 244 223 270 306 306 290 298 295 288 283 283 283 287 288 287 285
221 250 255 235 233 215 186 203 242 254 256 259 283 300 308 294 270 245 224 209 222 247 239 198 237 246 258 291 296 284 279 283 285 285 287 289 287 279
216 235 240 240 243 246 228 253 264 287 267 281 290 291 287 284 283 271 256 247 246 251 250 210 223 231 253 279 284 288 285 280 276 281 284 290 289 283
210 205 193 75 347 335 320 311 308 245 217 267 276 277 275 281 295 299 290 279 276 271 266 245 240 247 242 259 271 276 290 287 273 277 283 284 286 286
142 79 72 62 53 19 4 355 352 265 239 258 282 286 302 306 295 286 286 299 299 295 279 259 250 244 255 260 266 276 274 277 287 280 283 286 283 276
110 70 53 38 20 5 355 343 342 343 313 294 291 300 306 310 305 301 287 292 282 297 306 302 277 260 254 260 271 272 276 278 278 282 285 287 283 278
103 85 62 33 356 340 337 334 332 320 305 299 302 303 305 307 309 311 296 289 293 294 296 304 318 323 309 272 240 265 276 279 284 280 273 282 288 285
93 86 64 340 315 316 311 306 307 307 308 311 311 311 313 312 310 309 307 301 294 292 294 300 304 300 302 303 281 236 264 283 287 286 277 273 282 287
83 94 307 307 309 307 307 306 311 323 327 322 319 317 315 314 314 313 309 303 300 300 300 297 288 278 278 288 292 287 261 267 282 287 289 286 281 281
104 328 308 309 311 311 315 317 320 322 324 322 319 316 315 312 309 307 305 304 302 301 299 296 287 286 282 287 290 290 280 266 266 278 290 294 295 294
28 336 324 320 315 315 322 327 332 330 328 323 317 313 309 307 305 305 304 303 300 297 296 296 300 302 289 285 289 293 296 298 285 275 270 267 277 281
332 339 336 329 320 321 326 328 325 321 318 314 312 309 307 303 299 296 296 297 299 300 302 303 305 300 293 288 288 292 295 300 302 299 290 281 273 271
Height
1571 1571 1571 1571 1571 1571 1570 1570 1570 1569 1568 1568 1567 1566 1565 1564 1563 1562 1561 1561 1560 1559 1558 1557 1557 1556 1555 1554 1553 1552 1551 1550 1549 1547 1546 1545 1544 1543
1571 1571 1571 1571 1571 1571 1570 1570 1570 1569 1568 1568 1567 1566 1564 1563 1563 1562 1561 1561 1560 1559 1558 1558 1557 1556 1555 1554 1553 1552 1551 1549 1548 1547 1546 1545 1543 1542
1571 1571 1571 1571 1571 1570 1570 1570 1569 1569 1568 1567 1567 1565 1564 1563 1562 1562 1561 1561 1560 1559 1558 1557 1556 1555 1554 1553 1552 1551 1550 1549 1547 1546 1545 1543 1542 1541
1571 1571 1571 1571 1570 1570 1570 1569 1569 1568 1568 1567 1566 1565 1564 1563 1562 1562 1561 1560 1560 1559 1558 1557 1556 1555 1554 1552 1551 1550 1549 1547 1546 1545 1543 1542 1541 1539
1571 1571 1571 1570 1570 1570 1569 1569 1568 1568 1567 1567 1566 1565 1564 1563 1562 1561 1561 1560 1559 1558 1557 1556 1555 1553 1552 1551 1550 1548 1547 1546 1544 1543 1542 1540 1539 1537
1571 1571 1570 1570 1570 1569 1569 1569 1568 1568 1567 1566 1565 1564 1563 1562 1562 1560 1559 1559 1558 1557 1555 1554 1553 1552 1551 1549 1548 1547 1545 1544 1542 1541 1539 1538 1536 1535
1571 1570 1570 1570 1569 1569 1569 1568 1568 1567 1566 1565 1564 1563 1562 1561 1560 1559 1558 1557 1556 1555 1554 1552 1551 1550 1549 1547 1546 1544 1543 1541 1540 1538 1537 1535 1533 1532
1570 1570 1570 1569 1569 1568 1568 1567 1567 1566 1565 1564 1563 1562 1561 1560 1559 1558 1557 1555 1554 1553 1551 1550 1549 1547 1546 1544 1543 1541 1540 1538 1536 1535 1533 1532 1530 1528
1569 1569 1569 1568 1568 1567 1567 1566 1566 1565 1564 1564 1562 1561 1560 1559 1558 1556 1555 1553 1552 1551 1549 1547 1546 1544 1543 1541 1540 1538 1536 1534 1533 1531 1529 1528 1526 1524
1568 1568 1567 1567 1567 1566 1566 1565 1564 1563 1563 1561 1561 1560 1559 1557 1556 1555 1553 1551 1550 1548 1546 1543 1542 1540 1539 1538 1536 1534 1532 1531 1529 1527 1525 1523 1521 1519
1566 1566 1566 1565 1565 1565 1564 1563 1562 1562 1561 1560 1559 1557 1556 1555 1554 1552 1550 1548 1545 1544 1543 1541 1538 1536 1534 1533 1532 1530 1528 1527 1525 1523 1521 1518 1516 1514
1563 1563 1563 1563 1563 1562 1561 1560 1559 1559 1558 1557 1556 1555 1553 1552 1550 1549 1547 1545 1543 1541 1539 1537 1535 1533 1529 1528 1527 1526 1524 1522 1520 1518 1516 1514 1511 1508
1560 1561 1561 1560 1560 1559 1558 1557 1557 1556 1555 1554 1552 1551 1550 1549 1547 1545 1544 1542 1540 1538 1537 1534 1531 1529 1527 1523 1522 1521 1519 1517 1515 1512 1510 1508 1505 1503
1557 1558 1557 1557 1557 1556 1555 1554 1554 1553 1551 1550 1549 1547 1546 1545 1543 1541 1540 1538 1536 1534 1532 1530 1527 1525 1522 1518 1516 1514 1513 1511 1509 1506 1504 1502 1499 1497
1554 1554 1554 1554 1553 1553 1552 1551 1550 1549 1548 1546 1545 1543 1542 1541 1539 1537 1535 1533 1531 1530 1527 1525 1523 1520 1518 1514 1511 1508 1506 1504 1503 1500 1497 1495 1492 1489
1552 1551 1551 1551 1550 1550 1549 1548 1547 1545 1544 1543 1541 1540 1538 1536 1534 1532 1530 1528 1525 1524 1523 1520 1517 1515 1511 1509 1506 1502 1501 1498 1496 1494 1491 1488 1486 1483
1549 1549 1548 1548 1547 1546 1545 1544 1543 1542 1541 1539 1537 1535 1533 1531 1529 1527 1525 1523 1520 1518 1516 1514 1512 1509 1506 1503 1500 1497 1495 1492 1490 1487 1483 1480 1478 1476
1546 1545 1545 1545 1544 1543 1542 1541 1540 1538 1537 1535 1533 1531 1529 1527 1525 1523 1521 1518 1516 1513 1511 1508 1506 1502 1499 1497 1496 1492 1489 1486 1483 1481 1477 1473 1469 1468
1543 1542 1542 1542 1541 1540 1539 1538 1536 1535 1533 1532 1530 1528 1525 1523 1521 1518 1516 1514 1511 1509 1506 1504 1501 1497 1493 1489 1487 1487 1483 1479 1476 1473 1470 1466 1462 1459
1540 1540 1539 1539 1538 1537 1535 1534 1533 1531 1529 1528 1526 1523 1521 1519 1516 1514 1512 1509 1506 1504 1501 1499 1496 1493 1490 1485 1480 1478 1478 1474 1470 1466 1462 1459 1455 1452
1538 1537 1536 1536 1535 1533 1532 1531 1529 1527 1525 1523 1521 1519 1517 1514 1512 1510 1507 1504 1502 1498 1495 1493 1491 1489 1485 1480 1475 1470 1470 1468 1465 1460 1456 1451 1446 1443
1535 1534 1533 1532 1531 1530 1528 1527 1525 1523 1521 1519 1517 1515 1512 1510 1507 1505 1502 1499 1496 1493 1490 1487 1485 1482 1478 1474 1469 1464 1461 1459 1456 1453 1450 1447 1442 1436
1532 1531 1530 1529 1527 1526 1524 1522 1521 1518 1516 1514 1512 1510 1507 1505 1502 1499 1497 1494 1491 1488 1484 1481 1478 1475 1471 1468 1463 1458 1454 1450 1447 1443 1441 1439 1436 1432